Weather in Yamashi

Russia / Republic of Tatarstan     55°06′40″N   51°36′40″E
temp.,
°C
wind,
m/s
gust,
m/s
humid.,
%
clouds,
%
prec.,
mm/h
press.,
hPa
HPBL,
m
9 may, sun
sun900:00+12se3366100 0.0 101543
03:00+11se34685 0.0 101552
06:00+13se39682 0.0 1015247
09:00+19sse57465 0.0 1014702
12:00+22s56385 0.0 10142277
15:00+23s563833 0.0 10142200
18:00+20sse3552100 0.0 1014104
21:00+16se355624 0.0 101569
10 may, mon
mon1000:00+14se3457100 0.0 101567
03:00+14sse2458100 0.0 101765
06:00+15ese3459100 0.0 101871
09:00+20se4648100 0.0 1019563
12:00+23sse3436100 0.0 10192037
15:00+24e4433100 0.0 10202381
18:00+20ene345072 0.0 102156
21:00+16e3861100 0.0 1022122
11 may, tue
tue1100:00+15e2261100 0.0 102320
03:00+14ene2265100 0.0 102410
06:00+16e2465100 0.0 1025123
09:00+21ese3447100 0.0 1027773
12:00+24ese2436100 0.0 10272320
15:00+23ene4439100 0.0 10271663
18:00+21e235593 0.0 102755
21:00+17e385574 0.0 1028119
12 may, wed
wed1200:00+15ese226330 0.0 102918
03:00+14e226475 0.0 102911
06:00+16e246183 0.0 1030144
09:00+21e4543100 0.0 1030750
12:00+24e3434100 0.0 10291905
15:00+24ese4433100 0.0 10292102
18:00+21e3450100 0.0 102977
21:00+17ese2250100 0.0 102919
13 may, thu
thu1300:00+16e2254100 0.0 102911
03:00+14ese22600 0.0 102911
06:00+17ese24570 0.0 1029119
09:00+23se34420 0.0 1029983
12:00+25sse34350 0.0 10282210
15:00+26sse34330 0.0 10272213
18:00+23ssw22495 0.0 102730
21:00+19se115637 0.0 102711